Observations for Trim Market St
| Time | AQI | Temp °C | Hum % | Pres Pa | CO μg/m³ | H₂S μg/m³ | NO μg/m³ | NO₂ μg/m³ | O₃ μg/m³ | SO₂ μg/m³ | PM1 μg/m³ | PM2.5 μg/m³ | PM10 μg/m³ |
|---|---|---|---|---|---|---|---|---|---|---|---|---|---|
| Sunday 12 July 2026 | |||||||||||||
| 03:51 | 1 | 18.6 | 80 | 2,147,483,647 | 0.1 | 0 | 0.15 | 4.43 | 12.66 | 0 | 4.99 | 5.87 | 9.8 |
| 03:50 | 1 | 18.6 | 80 | 2,147,483,647 | 0.11 | 0 | 0.15 | 10.03 | 8.62 | 0 | 5.7 | 6.35 | 10.36 |
| 03:49 | 1 | 18.6 | 80 | 2,147,483,647 | 0.08 | 0 | 0 | 3.73 | 11.98 | 0 | 4.28 | 5.87 | 10.93 |
| 03:48 | 1 | 18.6 | 80 | 2,147,483,647 | 0.09 | 0 | 0 | 4.33 | 10.01 | 0 | 3.56 | 5.87 | 10.36 |
| 03:47 | 1 | 18.6 | 80 | 2,147,483,647 | 0.07 | 0 | 0 | 2.23 | 12.16 | 0 | 4.99 | 6.82 | 12.06 |
| 03:46 | 1 | 18.6 | 80 | 2,147,483,647 | 0.09 | 0 | 0 | 6.44 | 16.21 | 0 | 6.41 | 6.82 | 10.37 |
| 03:45 | 1 | 18.6 | 80 | 2,147,483,647 | 0.09 | 0 | 0 | 9.64 | 16.55 | 0 | 3.56 | 5.88 | 9.8 |
| 03:44 | 1 | 18.6 | 80 | 2,147,483,647 | 0.08 | 0 | 0 | 4.24 | 11.22 | 0 | 4.28 | 5.41 | 8.67 |
| 03:43 | 1 | 18.6 | 80 | 2,147,483,647 | 0.08 | 0 | 0 | 5.54 | 12.92 | 0 | 5.7 | 6.82 | 10.93 |
| 03:42 | 1 | 18.6 | 80 | 2,147,483,647 | 0.08 | 0 | 0 | 3.65 | 16.53 | 0 | 5.7 | 6.36 | 10.37 |
| 03:40 | 1 | 18.5 | 80 | 2,147,483,647 | 0.09 | 0 | 0 | 5.78 | 12.85 | 0 | 5.7 | 6.83 | 10.37 |
| 03:39 | 1 | 18.5 | 80 | 2,147,483,647 | 0.08 | 0 | 0.79 | 4.69 | 12.61 | 0 | 4.99 | 5.89 | 9.24 |
| 03:37 | 1 | 18.5 | 80 | 2,147,483,647 | 0.08 | 0 | 0 | 5.79 | 15.86 | 0 | 6.41 | 8.25 | 14.92 |
| 03:36 | 1 | 18.5 | 80 | 2,147,483,647 | 0.09 | 0 | 0 | 6.1 | 11.94 | 0 | 5.7 | 6.84 | 10.94 |
| 03:35 | 1 | 18.5 | 80 | 2,147,483,647 | 0.08 | 0 | 0 | 5.5 | 11.67 | 0 | 6.41 | 7.79 | 11.51 |
| 03:34 | 1 | 18.5 | 80 | 2,147,483,647 | 0.08 | 0 | 0 | 5.51 | 14.36 | 0 | 6.41 | 7.79 | 12.65 |
| 03:32 | 1 | 18.5 | 80 | 2,147,483,647 | 0.08 | 0 | 0 | 4.82 | 14.23 | 0 | 8.55 | 11.1 | 16.65 |
| 03:30 | 1 | 18.5 | 79 | 2,147,483,647 | 0.07 | 0 | 0 | 4.54 | 12.84 | 0 | 6.41 | 8.28 | 12.1 |
| 03:29 | 1 | 18.5 | 79 | 2,147,483,647 | 0.07 | 0 | 0 | 7.74 | 13.18 | 0 | 6.41 | 8.28 | 12.1 |
| 03:28 | 1 | 18.5 | 79 | 2,147,483,647 | 0.08 | 0 | 0 | 4.96 | 15 | 0 | 4.28 | 6.4 | 12.1 |